#datetime,building,power
2023-08-07T00:00:00,axn,32.33
2023-08-07T00:01:00,axn,31.44
2023-08-07T00:02:00,axn,31.80
2023-08-07T00:03:00,axn,31.71
2023-08-07T00:04:00,axn,32.00
2023-08-07T00:05:00,axn,32.15
2023-08-07T00:06:00,axn,31.98
2023-08-07T00:07:00,axn,32.44
2023-08-07T00:08:00,axn,31.88
2023-08-07T00:09:00,axn,31.61
2023-08-07T00:10:00,axn,31.82
2023-08-07T00:11:00,axn,31.54
2023-08-07T00:12:00,axn,31.61
2023-08-07T00:13:00,axn,31.64
2023-08-07T00:14:00,axn,32.61
2023-08-07T00:15:00,axn,31.78
2023-08-07T00:16:00,axn,31.96
2023-08-07T00:17:00,axn,31.91
2023-08-07T00:18:00,axn,31.78
2023-08-07T00:19:00,axn,31.84
2023-08-07T00:20:00,axn,31.82
2023-08-07T00:21:00,axn,31.79
2023-08-07T00:22:00,axn,31.73
2023-08-07T00:23:00,axn,32.04
2023-08-07T00:24:00,axn,32.02
2023-08-07T00:25:00,axn,32.02
2023-08-07T00:26:00,axn,32.31
2023-08-07T00:27:00,axn,32.43
2023-08-07T00:28:00,axn,32.34
2023-08-07T00:29:00,axn,32.76
2023-08-07T00:30:00,axn,35.26
2023-08-07T00:31:00,axn,35.24
2023-08-07T00:32:00,axn,35.19
2023-08-07T00:33:00,axn,32.35
2023-08-07T00:34:00,axn,32.49
2023-08-07T00:35:00,axn,32.78
2023-08-07T00:36:00,axn,32.50
2023-08-07T00:37:00,axn,37.73
2023-08-07T00:38:00,axn,32.48
2023-08-07T00:39:00,axn,32.68
2023-08-07T00:40:00,axn,32.96
2023-08-07T00:41:00,axn,31.88
2023-08-07T00:42:00,axn,31.80
2023-08-07T00:43:00,axn,31.99
2023-08-07T00:44:00,axn,32.00
2023-08-07T00:45:00,axn,34.70
2023-08-07T00:46:00,axn,32.14
2023-08-07T00:47:00,axn,32.02
2023-08-07T00:48:00,axn,31.72
2023-08-07T00:49:00,axn,31.27
2023-08-07T00:50:00,axn,31.20
2023-08-07T00:51:00,axn,31.10
2023-08-07T00:52:00,axn,31.52
2023-08-07T00:53:00,axn,31.13
2023-08-07T00:54:00,axn,31.33
2023-08-07T00:55:00,axn,31.42
2023-08-07T00:56:00,axn,31.40
2023-08-07T00:57:00,axn,31.46
2023-08-07T00:58:00,axn,31.47
2023-08-07T00:59:00,axn,31.40
2023-08-07T01:00:00,axn,31.38
2023-08-07T01:01:00,axn,31.67
2023-08-07T01:02:00,axn,31.52
2023-08-07T01:03:00,axn,31.47
2023-08-07T01:04:00,axn,31.39
2023-08-07T01:05:00,axn,31.64
2023-08-07T01:06:00,axn,31.62
2023-08-07T01:07:00,axn,31.77
2023-08-07T01:08:00,axn,31.46
2023-08-07T01:09:00,axn,31.20
2023-08-07T01:10:00,axn,31.31
2023-08-07T01:11:00,axn,31.03
2023-08-07T01:12:00,axn,31.05
2023-08-07T01:13:00,axn,31.36
2023-08-07T01:14:00,axn,31.63
2023-08-07T01:15:00,axn,32.41
2023-08-07T01:16:00,axn,31.55
2023-08-07T01:17:00,axn,31.49
2023-08-07T01:18:00,axn,31.67
2023-08-07T01:19:00,axn,31.51
2023-08-07T01:20:00,axn,31.57
2023-08-07T01:21:00,axn,31.62
2023-08-07T01:22:00,axn,31.62
2023-08-07T01:23:00,axn,31.50
2023-08-07T01:24:00,axn,31.45
2023-08-07T01:25:00,axn,31.52
2023-08-07T01:26:00,axn,31.52
2023-08-07T01:27:00,axn,31.22
2023-08-07T01:28:00,axn,31.59
2023-08-07T01:29:00,axn,31.32
2023-08-07T01:30:00,axn,31.36
2023-08-07T01:31:00,axn,31.44
2023-08-07T01:32:00,axn,31.40
2023-08-07T01:33:00,axn,31.44
2023-08-07T01:34:00,axn,31.47
2023-08-07T01:35:00,axn,31.41
2023-08-07T01:36:00,axn,31.24
2023-08-07T01:37:00,axn,31.27
2023-08-07T01:38:00,axn,31.30
2023-08-07T01:39:00,axn,31.21
2023-08-07T01:40:00,axn,31.16
2023-08-07T01:41:00,axn,31.13
2023-08-07T01:42:00,axn,31.16
2023-08-07T01:43:00,axn,31.26
2023-08-07T01:44:00,axn,31.31
2023-08-07T01:45:00,axn,31.32
2023-08-07T01:46:00,axn,31.29
2023-08-07T01:47:00,axn,31.32
2023-08-07T01:48:00,axn,31.42
2023-08-07T01:49:00,axn,31.39
2023-08-07T01:50:00,axn,31.43
2023-08-07T01:51:00,axn,31.68
2023-08-07T01:52:00,axn,31.69
2023-08-07T01:53:00,axn,31.85
2023-08-07T01:54:00,axn,31.64
2023-08-07T01:55:00,axn,31.42
2023-08-07T01:56:00,axn,31.49
2023-08-07T01:57:00,axn,31.34
2023-08-07T01:58:00,axn,31.36
2023-08-07T01:59:00,axn,31.40
2023-08-07T02:00:00,axn,31.59
2023-08-07T02:01:00,axn,31.76
2023-08-07T02:02:00,axn,32.09
2023-08-07T02:03:00,axn,31.76
2023-08-07T02:04:00,axn,31.40
2023-08-07T02:05:00,axn,31.43
2023-08-07T02:06:00,axn,31.61
2023-08-07T02:07:00,axn,31.79
2023-08-07T02:08:00,axn,31.62
2023-08-07T02:09:00,axn,31.42
2023-08-07T02:10:00,axn,31.52
2023-08-07T02:11:00,axn,31.25
2023-08-07T02:12:00,axn,31.22
2023-08-07T02:13:00,axn,31.55
2023-08-07T02:14:00,axn,31.72
2023-08-07T02:15:00,axn,32.17
2023-08-07T02:16:00,axn,31.95
2023-08-07T02:17:00,axn,32.20
2023-08-07T02:18:00,axn,32.27
2023-08-07T02:19:00,axn,32.06
2023-08-07T02:20:00,axn,31.91
2023-08-07T02:21:00,axn,32.14
2023-08-07T02:22:00,axn,32.46
2023-08-07T02:23:00,axn,32.42
2023-08-07T02:24:00,axn,32.74
2023-08-07T02:25:00,axn,32.37
2023-08-07T02:26:00,axn,32.26
2023-08-07T02:27:00,axn,32.29
2023-08-07T02:28:00,axn,32.51
2023-08-07T02:29:00,axn,32.40
2023-08-07T02:30:00,axn,32.34
2023-08-07T02:31:00,axn,32.38
2023-08-07T02:32:00,axn,42.81
2023-08-07T02:33:00,axn,42.76
2023-08-07T02:34:00,axn,42.74
2023-08-07T02:35:00,axn,42.83
2023-08-07T02:36:00,axn,32.49
2023-08-07T02:37:00,axn,32.60
2023-08-07T02:38:00,axn,32.05
2023-08-07T02:39:00,axn,32.01
2023-08-07T02:40:00,axn,31.99
2023-08-07T02:41:00,axn,31.97
2023-08-07T02:42:00,axn,31.92
2023-08-07T02:43:00,axn,31.91
2023-08-07T02:44:00,axn,31.84
2023-08-07T02:45:00,axn,31.74
2023-08-07T02:46:00,axn,31.82
2023-08-07T02:47:00,axn,31.72
2023-08-07T02:48:00,axn,32.08
2023-08-07T02:49:00,axn,31.96
2023-08-07T02:50:00,axn,31.82
2023-08-07T02:51:00,axn,31.86
2023-08-07T02:52:00,axn,32.16
2023-08-07T02:53:00,axn,32.18
2023-08-07T02:54:00,axn,31.95
2023-08-07T02:55:00,axn,32.18
2023-08-07T02:56:00,axn,32.18
2023-08-07T02:57:00,axn,32.46
2023-08-07T02:58:00,axn,32.18
2023-08-07T02:59:00,axn,31.98
2023-08-07T03:00:00,axn,35.46
2023-08-07T03:01:00,axn,36.52
2023-08-07T03:02:00,axn,36.58
2023-08-07T03:03:00,axn,34.96
2023-08-07T03:04:00,axn,32.17
2023-08-07T03:05:00,axn,32.04
2023-08-07T03:06:00,axn,32.12
2023-08-07T03:07:00,axn,32.09
2023-08-07T03:08:00,axn,32.11
2023-08-07T03:09:00,axn,32.20
2023-08-07T03:10:00,axn,31.88
2023-08-07T03:11:00,axn,31.83
2023-08-07T03:12:00,axn,32.07
2023-08-07T03:13:00,axn,32.58
2023-08-07T03:14:00,axn,32.52
2023-08-07T03:15:00,axn,32.45
2023-08-07T03:16:00,axn,32.43
2023-08-07T03:17:00,axn,32.43
2023-08-07T03:18:00,axn,32.49
2023-08-07T03:19:00,axn,32.51
2023-08-07T03:20:00,axn,32.53
2023-08-07T03:21:00,axn,32.63
2023-08-07T03:22:00,axn,32.69
2023-08-07T03:23:00,axn,32.59
2023-08-07T03:24:00,axn,32.49
2023-08-07T03:25:00,axn,32.98
2023-08-07T03:26:00,axn,32.42
2023-08-07T03:27:00,axn,32.51
2023-08-07T03:28:00,axn,32.56
2023-08-07T03:29:00,axn,32.52
2023-08-07T03:30:00,axn,32.21
2023-08-07T03:31:00,axn,32.49
2023-08-07T03:32:00,axn,33.00
2023-08-07T03:33:00,axn,32.42
2023-08-07T03:34:00,axn,32.47
2023-08-07T03:35:00,axn,32.54
2023-08-07T03:36:00,axn,32.51
2023-08-07T03:37:00,axn,32.42
2023-08-07T03:38:00,axn,32.54
2023-08-07T03:39:00,axn,32.62
2023-08-07T03:40:00,axn,32.44
2023-08-07T03:41:00,axn,32.66
2023-08-07T03:42:00,axn,32.24
2023-08-07T03:43:00,axn,32.34
2023-08-07T03:44:00,axn,32.37
2023-08-07T03:45:00,axn,32.54
2023-08-07T03:46:00,axn,32.66
2023-08-07T03:47:00,axn,32.47
2023-08-07T03:48:00,axn,32.98
2023-08-07T03:49:00,axn,32.78
2023-08-07T03:50:00,axn,32.86
2023-08-07T03:51:00,axn,32.31
2023-08-07T03:52:00,axn,32.23
2023-08-07T03:53:00,axn,32.48
2023-08-07T03:54:00,axn,32.69
2023-08-07T03:55:00,axn,32.86
2023-08-07T03:56:00,axn,33.02
2023-08-07T03:57:00,axn,36.19
2023-08-07T03:58:00,axn,32.91
2023-08-07T03:59:00,axn,33.05
2023-08-07T04:00:00,axn,33.30
2023-08-07T04:01:00,axn,32.87
2023-08-07T04:02:00,axn,32.92
2023-08-07T04:03:00,axn,32.81
2023-08-07T04:04:00,axn,32.77
2023-08-07T04:05:00,axn,32.62
2023-08-07T04:06:00,axn,32.68
2023-08-07T04:07:00,axn,32.60
2023-08-07T04:08:00,axn,33.32
2023-08-07T04:09:00,axn,33.33
2023-08-07T04:10:00,axn,33.20
2023-08-07T04:11:00,axn,36.02
2023-08-07T04:12:00,axn,36.13
2023-08-07T04:13:00,axn,35.88
2023-08-07T04:14:00,axn,33.09
2023-08-07T04:15:00,axn,32.98
2023-08-07T04:16:00,axn,33.03
2023-08-07T04:17:00,axn,32.94
2023-08-07T04:18:00,axn,34.85
2023-08-07T04:19:00,axn,35.40
2023-08-07T04:20:00,axn,35.40
2023-08-07T04:21:00,axn,53.89
2023-08-07T04:22:00,axn,35.33
2023-08-07T04:23:00,axn,35.84
2023-08-07T04:24:00,axn,36.12
2023-08-07T04:25:00,axn,36.16
2023-08-07T04:26:00,axn,36.20
2023-08-07T04:27:00,axn,36.23
2023-08-07T04:28:00,axn,36.26
2023-08-07T04:29:00,axn,36.33
2023-08-07T04:30:00,axn,36.27
2023-08-07T04:31:00,axn,36.29
2023-08-07T04:32:00,axn,36.20
2023-08-07T04:33:00,axn,48.32
2023-08-07T04:34:00,axn,36.49
2023-08-07T04:35:00,axn,35.66
2023-08-07T04:36:00,axn,35.63
2023-08-07T04:37:00,axn,35.60
2023-08-07T04:38:00,axn,34.95
2023-08-07T04:39:00,axn,34.88
2023-08-07T04:40:00,axn,32.87
2023-08-07T04:41:00,axn,33.23
2023-08-07T04:42:00,axn,33.34
2023-08-07T04:43:00,axn,33.39
2023-08-07T04:44:00,axn,32.82
2023-08-07T04:45:00,axn,33.46
2023-08-07T04:46:00,axn,33.22
2023-08-07T04:47:00,axn,38.44
2023-08-07T04:48:00,axn,33.55
2023-08-07T04:49:00,axn,33.40
2023-08-07T04:50:00,axn,33.10
2023-08-07T04:51:00,axn,33.22
2023-08-07T04:52:00,axn,33.12
2023-08-07T04:53:00,axn,32.43
2023-08-07T04:54:00,axn,32.74
2023-08-07T04:55:00,axn,32.78
2023-08-07T04:56:00,axn,32.87
2023-08-07T04:57:00,axn,33.83
2023-08-07T04:58:00,axn,33.15
2023-08-07T04:59:00,axn,33.19
2023-08-07T05:00:00,axn,32.68
2023-08-07T05:01:00,axn,37.76
2023-08-07T05:02:00,axn,55.68
2023-08-07T05:03:00,axn,52.62
2023-08-07T05:04:00,axn,52.29
2023-08-07T05:05:00,axn,47.75
2023-08-07T05:06:00,axn,46.27
2023-08-07T05:07:00,axn,46.11
2023-08-07T05:08:00,axn,31.87
2023-08-07T05:09:00,axn,31.74
2023-08-07T05:10:00,axn,46.26
2023-08-07T05:11:00,axn,45.91
2023-08-07T05:12:00,axn,31.71
2023-08-07T05:13:00,axn,31.61
2023-08-07T05:14:00,axn,31.67
2023-08-07T05:15:00,axn,31.60
2023-08-07T05:16:00,axn,31.67
2023-08-07T05:17:00,axn,51.91
2023-08-07T05:18:00,axn,31.90
2023-08-07T05:19:00,axn,31.81
2023-08-07T05:20:00,axn,32.73
2023-08-07T05:21:00,axn,31.77
2023-08-07T05:22:00,axn,31.29
2023-08-07T05:23:00,axn,31.13
2023-08-07T05:24:00,axn,31.18
2023-08-07T05:25:00,axn,31.08
2023-08-07T05:26:00,axn,30.78
2023-08-07T05:27:00,axn,30.70
2023-08-07T05:28:00,axn,30.64
2023-08-07T05:29:00,axn,30.94
2023-08-07T05:30:00,axn,31.20
2023-08-07T05:31:00,axn,33.09
2023-08-07T05:32:00,axn,33.15
2023-08-07T05:33:00,axn,33.21
2023-08-07T05:34:00,axn,32.94
2023-08-07T05:35:00,axn,32.74
2023-08-07T05:36:00,axn,32.84
2023-08-07T05:37:00,axn,32.68
2023-08-07T05:38:00,axn,32.59
2023-08-07T05:39:00,axn,32.35
2023-08-07T05:40:00,axn,32.24
2023-08-07T05:41:00,axn,32.14
2023-08-07T05:42:00,axn,32.16
2023-08-07T05:43:00,axn,32.78
2023-08-07T05:44:00,axn,32.62
2023-08-07T05:45:00,axn,32.51
2023-08-07T05:46:00,axn,32.27
2023-08-07T05:47:00,axn,32.12
2023-08-07T05:48:00,axn,32.26
2023-08-07T05:49:00,axn,32.10
2023-08-07T05:50:00,axn,31.87
2023-08-07T05:51:00,axn,31.75
2023-08-07T05:52:00,axn,31.80
2023-08-07T05:53:00,axn,31.73
2023-08-07T05:54:00,axn,32.07
2023-08-07T05:55:00,axn,31.58
2023-08-07T05:56:00,axn,31.52
2023-08-07T05:57:00,axn,31.53
2023-08-07T05:58:00,axn,31.87
2023-08-07T05:59:00,axn,31.94
2023-08-07T06:00:00,axn,32.04
2023-08-07T06:01:00,axn,32.05
2023-08-07T06:02:00,axn,32.26
2023-08-07T06:03:00,axn,32.08
2023-08-07T06:04:00,axn,32.52
2023-08-07T06:05:00,axn,32.49
2023-08-07T06:06:00,axn,32.13
2023-08-07T06:07:00,axn,32.38
2023-08-07T06:08:00,axn,32.07
2023-08-07T06:09:00,axn,31.98
2023-08-07T06:10:00,axn,31.91
2023-08-07T06:11:00,axn,32.25
2023-08-07T06:12:00,axn,31.93
2023-08-07T06:13:00,axn,32.07
2023-08-07T06:14:00,axn,31.77
2023-08-07T06:15:00,axn,31.69
2023-08-07T06:16:00,axn,31.45
2023-08-07T06:17:00,axn,31.47
2023-08-07T06:18:00,axn,31.21
2023-08-07T06:19:00,axn,32.05
2023-08-07T06:20:00,axn,31.56
2023-08-07T06:21:00,axn,31.59
2023-08-07T06:22:00,axn,31.53
2023-08-07T06:23:00,axn,31.48
2023-08-07T06:24:00,axn,31.45
2023-08-07T06:25:00,axn,31.62
2023-08-07T06:26:00,axn,31.49
2023-08-07T06:27:00,axn,31.23
2023-08-07T06:28:00,axn,31.18
2023-08-07T06:29:00,axn,31.43
2023-08-07T06:30:00,axn,31.43
2023-08-07T06:31:00,axn,31.10
2023-08-07T06:32:00,axn,31.18
2023-08-07T06:33:00,axn,30.92
2023-08-07T06:34:00,axn,31.35
2023-08-07T06:35:00,axn,30.56
2023-08-07T06:36:00,axn,30.66
2023-08-07T06:37:00,axn,30.43
2023-08-07T06:38:00,axn,30.38
2023-08-07T06:39:00,axn,30.53
2023-08-07T06:40:00,axn,30.49
2023-08-07T06:41:00,axn,30.50
2023-08-07T06:42:00,axn,30.43
2023-08-07T06:43:00,axn,30.82
2023-08-07T06:44:00,axn,30.38
2023-08-07T06:45:00,axn,30.26
2023-08-07T06:46:00,axn,30.32
2023-08-07T06:47:00,axn,30.37
2023-08-07T06:48:00,axn,30.24
2023-08-07T06:49:00,axn,30.33
2023-08-07T06:50:00,axn,30.36
2023-08-07T06:51:00,axn,30.76
2023-08-07T06:52:00,axn,30.41
2023-08-07T06:53:00,axn,30.54
2023-08-07T06:54:00,axn,30.69
2023-08-07T06:55:00,axn,30.92
2023-08-07T06:56:00,axn,30.72
2023-08-07T06:57:00,axn,30.75
2023-08-07T06:58:00,axn,30.48
2023-08-07T06:59:00,axn,30.47
2023-08-07T07:00:00,axn,30.47
2023-08-07T07:01:00,axn,33.53
2023-08-07T07:02:00,axn,34.47
2023-08-07T07:03:00,axn,36.70
2023-08-07T07:04:00,axn,37.41
2023-08-07T07:05:00,axn,37.02
2023-08-07T07:06:00,axn,37.30
2023-08-07T07:07:00,axn,36.77
2023-08-07T07:08:00,axn,39.78
2023-08-07T07:09:00,axn,40.04
2023-08-07T07:10:00,axn,37.54
2023-08-07T07:11:00,axn,37.55
2023-08-07T07:12:00,axn,37.69
2023-08-07T07:13:00,axn,37.75
2023-08-07T07:14:00,axn,37.79
2023-08-07T07:15:00,axn,37.92
2023-08-07T07:16:00,axn,37.81
2023-08-07T07:17:00,axn,37.95
2023-08-07T07:18:00,axn,37.92
2023-08-07T07:19:00,axn,37.50
2023-08-07T07:20:00,axn,37.74
2023-08-07T07:21:00,axn,38.48
2023-08-07T07:22:00,axn,38.03
2023-08-07T07:23:00,axn,37.97
2023-08-07T07:24:00,axn,37.22
2023-08-07T07:25:00,axn,37.80
2023-08-07T07:26:00,axn,38.15
2023-08-07T07:27:00,axn,38.36
2023-08-07T07:28:00,axn,38.29
2023-08-07T07:29:00,axn,38.07
2023-08-07T07:30:00,axn,38.41
2023-08-07T07:31:00,axn,38.43
2023-08-07T07:32:00,axn,55.57
2023-08-07T07:33:00,axn,38.66
2023-08-07T07:34:00,axn,38.87
2023-08-07T07:35:00,axn,39.13
2023-08-07T07:36:00,axn,39.58
2023-08-07T07:37:00,axn,56.08
2023-08-07T07:38:00,axn,39.60
2023-08-07T07:39:00,axn,42.42
2023-08-07T07:40:00,axn,55.70
2023-08-07T07:41:00,axn,41.89
2023-08-07T07:42:00,axn,39.58
2023-08-07T07:43:00,axn,39.66
2023-08-07T07:44:00,axn,40.38
2023-08-07T07:45:00,axn,40.52
2023-08-07T07:46:00,axn,41.50
2023-08-07T07:47:00,axn,40.90
2023-08-07T07:48:00,axn,43.05
2023-08-07T07:49:00,axn,42.61
2023-08-07T07:50:00,axn,43.38
2023-08-07T07:51:00,axn,43.15
2023-08-07T07:52:00,axn,43.20
2023-08-07T07:53:00,axn,42.75
2023-08-07T07:54:00,axn,42.75
2023-08-07T07:55:00,axn,42.85
2023-08-07T07:56:00,axn,43.27
2023-08-07T07:57:00,axn,43.44
2023-08-07T07:58:00,axn,43.41
2023-08-07T07:59:00,axn,43.38
2023-08-07T08:00:00,axn,43.01
2023-08-07T08:01:00,axn,43.02
2023-08-07T08:02:00,axn,46.62
2023-08-07T08:03:00,axn,46.69
2023-08-07T08:04:00,axn,46.69
2023-08-07T08:05:00,axn,46.87
2023-08-07T08:06:00,axn,47.46
2023-08-07T08:07:00,axn,47.58
2023-08-07T08:08:00,axn,48.11
2023-08-07T08:09:00,axn,47.98
2023-08-07T08:10:00,axn,47.84
2023-08-07T08:11:00,axn,48.80
2023-08-07T08:12:00,axn,48.62
2023-08-07T08:13:00,axn,48.80
2023-08-07T08:14:00,axn,48.86
2023-08-07T08:15:00,axn,48.80
2023-08-07T08:16:00,axn,48.42
2023-08-07T08:17:00,axn,48.25
2023-08-07T08:18:00,axn,48.30
2023-08-07T08:19:00,axn,48.08
2023-08-07T08:20:00,axn,48.79
2023-08-07T08:21:00,axn,48.88
2023-08-07T08:22:00,axn,49.25
2023-08-07T08:23:00,axn,49.06
2023-08-07T08:24:00,axn,48.86
2023-08-07T08:25:00,axn,49.13
2023-08-07T08:26:00,axn,48.82
2023-08-07T08:27:00,axn,48.99
2023-08-07T08:28:00,axn,48.89
2023-08-07T08:29:00,axn,48.59
2023-08-07T08:30:00,axn,48.73
2023-08-07T08:31:00,axn,48.39
2023-08-07T08:32:00,axn,49.06
2023-08-07T08:33:00,axn,48.91
2023-08-07T08:34:00,axn,49.51
2023-08-07T08:35:00,axn,49.58
2023-08-07T08:36:00,axn,49.84
2023-08-07T08:37:00,axn,49.75
2023-08-07T08:38:00,axn,49.82
2023-08-07T08:39:00,axn,49.70
2023-08-07T08:40:00,axn,49.68
2023-08-07T08:41:00,axn,49.20
2023-08-07T08:42:00,axn,49.38
2023-08-07T08:43:00,axn,49.41
2023-08-07T08:44:00,axn,49.90
2023-08-07T08:45:00,axn,50.07
2023-08-07T08:46:00,axn,50.63
2023-08-07T08:47:00,axn,49.99
2023-08-07T08:48:00,axn,50.48
2023-08-07T08:49:00,axn,50.23
2023-08-07T08:50:00,axn,50.09
2023-08-07T08:51:00,axn,50.02
2023-08-07T08:52:00,axn,49.82
2023-08-07T08:53:00,axn,50.08
2023-08-07T08:54:00,axn,49.86
2023-08-07T08:55:00,axn,49.86
2023-08-07T08:56:00,axn,49.66
2023-08-07T08:57:00,axn,50.22
2023-08-07T08:58:00,axn,50.05
2023-08-07T08:59:00,axn,50.97
2023-08-07T09:00:00,axn,50.38
2023-08-07T09:01:00,axn,50.53
2023-08-07T09:02:00,axn,50.84
2023-08-07T09:03:00,axn,53.50
2023-08-07T09:04:00,axn,50.96
2023-08-07T09:05:00,axn,50.68
2023-08-07T09:06:00,axn,50.50
2023-08-07T09:07:00,axn,50.83
2023-08-07T09:08:00,axn,50.76
2023-08-07T09:09:00,axn,51.39
2023-08-07T09:10:00,axn,51.75
2023-08-07T09:11:00,axn,52.53
2023-08-07T09:12:00,axn,51.77
2023-08-07T09:13:00,axn,52.11
2023-08-07T09:14:00,axn,52.39
2023-08-07T09:15:00,axn,51.69
2023-08-07T09:16:00,axn,52.03
2023-08-07T09:17:00,axn,51.78
2023-08-07T09:18:00,axn,51.80
2023-08-07T09:19:00,axn,51.60
2023-08-07T09:20:00,axn,51.61
2023-08-07T09:21:00,axn,51.60
2023-08-07T09:22:00,axn,52.22
2023-08-07T09:23:00,axn,51.79
2023-08-07T09:24:00,axn,51.64
2023-08-07T09:25:00,axn,51.76
2023-08-07T09:26:00,axn,51.43
2023-08-07T09:27:00,axn,51.52
2023-08-07T09:28:00,axn,51.10
2023-08-07T09:29:00,axn,50.97
2023-08-07T09:30:00,axn,50.41
2023-08-07T09:31:00,axn,49.79
2023-08-07T09:32:00,axn,49.74
2023-08-07T09:33:00,axn,49.68
2023-08-07T09:34:00,axn,49.64
2023-08-07T09:35:00,axn,64.34
2023-08-07T09:36:00,axn,63.96
2023-08-07T09:37:00,axn,49.88
2023-08-07T09:38:00,axn,63.82
2023-08-07T09:39:00,axn,63.73
2023-08-07T09:40:00,axn,63.71
2023-08-07T09:41:00,axn,63.58
2023-08-07T09:42:00,axn,49.90
2023-08-07T09:43:00,axn,49.68
2023-08-07T09:44:00,axn,49.83
2023-08-07T09:45:00,axn,49.90
2023-08-07T09:46:00,axn,50.48
2023-08-07T09:47:00,axn,50.52
2023-08-07T09:48:00,axn,49.90
2023-08-07T09:49:00,axn,50.23
2023-08-07T09:50:00,axn,49.72
2023-08-07T09:51:00,axn,49.09
2023-08-07T09:52:00,axn,49.18
2023-08-07T09:53:00,axn,50.19
2023-08-07T09:54:00,axn,49.18
2023-08-07T09:55:00,axn,72.70
2023-08-07T09:56:00,axn,48.86
2023-08-07T09:57:00,axn,48.49
2023-08-07T09:58:00,axn,49.05
2023-08-07T09:59:00,axn,72.74
2023-08-07T10:00:00,axn,51.85
2023-08-07T10:01:00,axn,51.92
2023-08-07T10:02:00,axn,51.67
2023-08-07T10:03:00,axn,48.83
2023-08-07T10:04:00,axn,48.80
2023-08-07T10:05:00,axn,48.60
2023-08-07T10:06:00,axn,48.63
2023-08-07T10:07:00,axn,48.37
2023-08-07T10:08:00,axn,48.45
2023-08-07T10:09:00,axn,48.61
2023-08-07T10:10:00,axn,48.91
2023-08-07T10:11:00,axn,48.93
2023-08-07T10:12:00,axn,48.87
2023-08-07T10:13:00,axn,49.34
2023-08-07T10:14:00,axn,49.22
2023-08-07T10:15:00,axn,48.53
2023-08-07T10:16:00,axn,53.09
2023-08-07T10:17:00,axn,53.02
2023-08-07T10:18:00,axn,53.05
2023-08-07T10:19:00,axn,49.59
2023-08-07T10:20:00,axn,49.34
2023-08-07T10:21:00,axn,49.64
2023-08-07T10:22:00,axn,49.28
2023-08-07T10:23:00,axn,51.31
2023-08-07T10:24:00,axn,50.70
2023-08-07T10:25:00,axn,61.11
2023-08-07T10:26:00,axn,60.86
2023-08-07T10:27:00,axn,60.06
2023-08-07T10:28:00,axn,59.27
2023-08-07T10:29:00,axn,49.28
2023-08-07T10:30:00,axn,49.30
2023-08-07T10:31:00,axn,49.32
2023-08-07T10:32:00,axn,49.79
2023-08-07T10:33:00,axn,49.62
2023-08-07T10:34:00,axn,49.50
2023-08-07T10:35:00,axn,52.49
2023-08-07T10:36:00,axn,49.36
2023-08-07T10:37:00,axn,49.61
2023-08-07T10:38:00,axn,49.35
2023-08-07T10:39:00,axn,49.42
2023-08-07T10:40:00,axn,49.45
2023-08-07T10:41:00,axn,49.43
2023-08-07T10:42:00,axn,49.32
2023-08-07T10:43:00,axn,49.20
2023-08-07T10:44:00,axn,54.27
2023-08-07T10:45:00,axn,49.30
2023-08-07T10:46:00,axn,49.47
2023-08-07T10:47:00,axn,49.55
2023-08-07T10:48:00,axn,49.16
2023-08-07T10:49:00,axn,49.12
2023-08-07T10:50:00,axn,48.93
2023-08-07T10:51:00,axn,49.02
2023-08-07T10:52:00,axn,49.10
2023-08-07T10:53:00,axn,49.21
2023-08-07T10:54:00,axn,48.86
2023-08-07T10:55:00,axn,49.17
2023-08-07T10:56:00,axn,48.95
2023-08-07T10:57:00,axn,49.79
2023-08-07T10:58:00,axn,49.87
2023-08-07T10:59:00,axn,50.00
2023-08-07T11:00:00,axn,49.30
2023-08-07T11:01:00,axn,49.49
2023-08-07T11:02:00,axn,49.75
2023-08-07T11:03:00,axn,50.08
2023-08-07T11:04:00,axn,49.09
2023-08-07T11:05:00,axn,48.73
2023-08-07T11:06:00,axn,49.06
2023-08-07T11:07:00,axn,48.55
2023-08-07T11:08:00,axn,48.81
2023-08-07T11:09:00,axn,48.59
2023-08-07T11:10:00,axn,51.97
2023-08-07T11:11:00,axn,52.34
2023-08-07T11:12:00,axn,51.98
2023-08-07T11:13:00,axn,49.13
2023-08-07T11:14:00,axn,49.01
2023-08-07T11:15:00,axn,49.45
2023-08-07T11:16:00,axn,49.46
2023-08-07T11:17:00,axn,49.22
2023-08-07T11:18:00,axn,49.36
2023-08-07T11:19:00,axn,49.77
2023-08-07T11:20:00,axn,49.40
2023-08-07T11:21:00,axn,49.85
2023-08-07T11:22:00,axn,49.47
2023-08-07T11:23:00,axn,49.75
2023-08-07T11:24:00,axn,49.64
2023-08-07T11:25:00,axn,49.70
2023-08-07T11:26:00,axn,49.39
2023-08-07T11:27:00,axn,49.38
2023-08-07T11:28:00,axn,49.56
2023-08-07T11:29:00,axn,49.38
2023-08-07T11:30:00,axn,49.52
2023-08-07T11:31:00,axn,49.63
2023-08-07T11:32:00,axn,49.83
2023-08-07T11:33:00,axn,49.54
2023-08-07T11:34:00,axn,49.82
2023-08-07T11:35:00,axn,49.81
2023-08-07T11:36:00,axn,49.87
2023-08-07T11:37:00,axn,48.97
2023-08-07T11:38:00,axn,49.06
2023-08-07T11:39:00,axn,49.07
2023-08-07T11:40:00,axn,48.94
2023-08-07T11:41:00,axn,49.50
2023-08-07T11:42:00,axn,48.98
2023-08-07T11:43:00,axn,48.81
2023-08-07T11:44:00,axn,64.21
2023-08-07T11:45:00,axn,49.11
2023-08-07T11:46:00,axn,49.95
2023-08-07T11:47:00,axn,49.89
2023-08-07T11:48:00,axn,49.01
2023-08-07T11:49:00,axn,49.15
2023-08-07T11:50:00,axn,49.15
2023-08-07T11:51:00,axn,49.45
2023-08-07T11:52:00,axn,49.33
2023-08-07T11:53:00,axn,49.70
2023-08-07T11:54:00,axn,49.18
2023-08-07T11:55:00,axn,49.26
2023-08-07T11:56:00,axn,49.16
2023-08-07T11:57:00,axn,49.32
2023-08-07T11:58:00,axn,65.22
2023-08-07T11:59:00,axn,50.27
2023-08-07T12:00:00,axn,49.38
2023-08-07T12:01:00,axn,49.13
2023-08-07T12:02:00,axn,49.61
2023-08-07T12:03:00,axn,49.63
2023-08-07T12:04:00,axn,49.59
2023-08-07T12:05:00,axn,49.31
2023-08-07T12:06:00,axn,49.47
2023-08-07T12:07:00,axn,49.38
2023-08-07T12:08:00,axn,49.77
2023-08-07T12:09:00,axn,49.29
2023-08-07T12:10:00,axn,49.72
2023-08-07T12:11:00,axn,50.04
2023-08-07T12:12:00,axn,49.95
2023-08-07T12:13:00,axn,50.27
2023-08-07T12:14:00,axn,49.37
2023-08-07T12:15:00,axn,49.39
2023-08-07T12:16:00,axn,49.28
2023-08-07T12:17:00,axn,49.95
2023-08-07T12:18:00,axn,50.46
2023-08-07T12:19:00,axn,51.32
2023-08-07T12:20:00,axn,51.59
2023-08-07T12:21:00,axn,51.24
2023-08-07T12:22:00,axn,52.60
2023-08-07T12:23:00,axn,57.59
2023-08-07T12:24:00,axn,60.47
2023-08-07T12:25:00,axn,56.97
2023-08-07T12:26:00,axn,57.25
2023-08-07T12:27:00,axn,51.09
2023-08-07T12:28:00,axn,50.90
2023-08-07T12:29:00,axn,50.98
2023-08-07T12:30:00,axn,50.69
2023-08-07T12:31:00,axn,50.77
2023-08-07T12:32:00,axn,50.58
2023-08-07T12:33:00,axn,50.41
2023-08-07T12:34:00,axn,50.65
2023-08-07T12:35:00,axn,53.55
2023-08-07T12:36:00,axn,53.64
2023-08-07T12:37:00,axn,53.51
2023-08-07T12:38:00,axn,50.48
2023-08-07T12:39:00,axn,50.37
2023-08-07T12:40:00,axn,50.57
2023-08-07T12:41:00,axn,50.40
2023-08-07T12:42:00,axn,50.36
2023-08-07T12:43:00,axn,46.74
2023-08-07T12:44:00,axn,46.72
2023-08-07T12:45:00,axn,46.58
2023-08-07T12:46:00,axn,47.05
2023-08-07T12:47:00,axn,47.28
2023-08-07T12:48:00,axn,48.09
2023-08-07T12:49:00,axn,46.48
2023-08-07T12:50:00,axn,45.95
2023-08-07T12:51:00,axn,46.22
2023-08-07T12:52:00,axn,46.21
2023-08-07T12:53:00,axn,46.01
2023-08-07T12:54:00,axn,45.89
2023-08-07T12:55:00,axn,45.94
2023-08-07T12:56:00,axn,45.79
2023-08-07T12:57:00,axn,46.39
2023-08-07T12:58:00,axn,46.05
2023-08-07T12:59:00,axn,46.22
2023-08-07T13:00:00,axn,46.08
2023-08-07T13:01:00,axn,48.02
2023-08-07T13:02:00,axn,48.15
2023-08-07T13:03:00,axn,48.08
2023-08-07T13:04:00,axn,47.92
2023-08-07T13:05:00,axn,47.90
2023-08-07T13:06:00,axn,47.73
2023-08-07T13:07:00,axn,47.93
2023-08-07T13:08:00,axn,47.71
2023-08-07T13:09:00,axn,48.04
2023-08-07T13:10:00,axn,48.13
2023-08-07T13:11:00,axn,47.29
2023-08-07T13:12:00,axn,46.68
2023-08-07T13:13:00,axn,46.55
2023-08-07T13:14:00,axn,46.53
2023-08-07T13:15:00,axn,46.62
2023-08-07T13:16:00,axn,46.50
2023-08-07T13:17:00,axn,46.42
2023-08-07T13:18:00,axn,46.39